Location: *
(50.5492°N, 7.7469°E)
Time: 02:23:56
(UTC+00:00)

SJ-6B - Pass Details

Date: 21 October 2019
Orbit: 510 x 582 km, 97.6° (Epoch: 19 November)

Event Time Altitude Azimuth Distance (km) Brightness Sun altitude
Exits shadow 18:47:13 26° 6° (N) 1,047 4.2 -23.1°
Drops below altitude 10° 18:49:02 10° 355° (N) 1,752 5.6 -23.4°
Sets 18:51:09 0° 351° (N) 2,640 6.6 -23.7°
